Weather History for Durango, CO

Change the Weather History Date:

Sunday, August 4, 2013

  Actual Average Record
Temperature  
Mean Temperature 70 °F 69 °F  
Max Temperature 85 °F 85 °F 93 °F (2000)
Min Temperature 54 °F 54 °F 43 °F (1974)
Degree Days  
Heating Degree Days 0 0  
Month to date heating degree days 0 0  
Since 1 June heating degree days 40 125  
Since 1 July heating degree days 0 10  
Cooling Degree Days 5 4  
Month to date cooling degree days 17 17  
Year to date cooling degree days 263 168  
Since 1 June cooling degree days 263 167  
Growing Degree Days 20 (Base 50)    
Moisture  
Dew Point 50 °F    
Average Humidity 53    
Maximum Humidity 77    
Minimum Humidity 28    
Precipitation  
Precipitation 0.13 in 0.09 in 0.63 in (2006)
Month to date precipitation 0.66 0.34  
Year to date precipitation 6.50 8.13  
Sea Level Pressure  
Sea Level Pressure 30.11 in    
Wind  
Wind Speed 5 mph (NNW)    
Max Wind Speed 23 mph    
Max Gust Speed 30 mph    
Visibility 10 miles    
Events Rain , Thunderstorm    
T = Trace of Precipitation, MM = Missing Value Source: NWS Daily Summary

Daily Weather History Graph

Daily Weather History Graph

Search for Another Location

Airport:

Trip Planner

Search our weather history database for the weather conditions in past years. The results will help you decide how hot, cold, wet, or windy it might be!

Date:

Astronomy

Aug. 04, 2013 Rise Set
Actual Time 6:18 AM MDT 8:14 PM MDT
Civil Twilight 5:50 AM MDT 8:43 PM MDT
Nautical Twilight 5:15 AM MDT 9:17 PM MDT
Astronomical Twilight 4:38 AM MDT 9:55 PM MDT
Moon 4:22 AM MDT (8/4) 6:40 PM MDT (8/4)
Length of Visible Light 14h 53m
Length of Day
13h 56m
Waning Crescent, 4% of the Moon is Illuminated
Aug 4
Waning Crescent
Aug 6
New
Aug 14
First Quarter
Aug 20
Full
Aug 28
Last Quarter

Hourly Weather History & Observations

Time (MDT) Temp. Dew Point Humidity Pressure Visibility Wind Dir Wind Speed Gust Speed Precip Events Conditions
12:53 AM 59.0 °F 52.0 °F 78% 30.05 in 10.0 mi NNE 3.5 mph - N/A   Clear
1:53 AM 60.1 °F 48.9 °F 67% 30.03 in 10.0 mi NNW 3.5 mph - N/A   Clear
2:53 AM 57.0 °F 48.9 °F 74% 30.04 in 10.0 mi Calm Calm - N/A   Clear
3:53 AM 55.9 °F 48.0 °F 75% 30.04 in 10.0 mi North 8.1 mph - N/A   Clear
4:53 AM 55.9 °F 48.0 °F 75% 30.04 in 10.0 mi Calm Calm - N/A   Partly Cloudy
5:53 AM 55.9 °F 48.9 °F 77% 30.04 in 10.0 mi Calm Calm - N/A   Clear
6:53 AM 55.9 °F 48.0 °F 75% 30.07 in 10.0 mi Calm Calm - N/A   Clear
7:53 AM 59.0 °F 48.9 °F 69% 30.09 in 10.0 mi North 3.5 mph - N/A   Clear
8:53 AM 66.0 °F 50.0 °F 56% 30.09 in 10.0 mi Calm Calm - N/A   Clear
9:53 AM 73.0 °F 48.0 °F 41% 30.06 in 10.0 mi Calm Calm - N/A   Clear
10:53 AM 78.1 °F 48.0 °F 35% 30.05 in 10.0 mi NE 3.5 mph - N/A   Clear
11:53 AM 80.1 °F 48.0 °F 32% 30.04 in 10.0 mi Calm Calm - N/A   Clear
12:53 PM 82.0 °F 46.9 °F 29% 30.02 in 10.0 mi Variable 3.5 mph - N/A   Clear
1:53 PM 82.0 °F 46.9 °F 29% 30.00 in 10.0 mi NW 12.7 mph 19.6 mph N/A   Overcast
2:31 PM 82.4 °F 48.2 °F 30% 30.26 in 10.0 mi NNW 15.0 mph 23.0 mph N/A Thunderstorm Scattered Clouds
2:46 PM 82.4 °F 48.2 °F 30% 30.26 in 10.0 mi NNW 12.7 mph - N/A   Partly Cloudy
2:53 PM 81.0 °F 48.0 °F 31% 30.00 in 10.0 mi NNW 13.8 mph - N/A   Partly Cloudy
3:03 PM 80.6 °F 46.4 °F 30% 30.26 in 10.0 mi NNW 13.8 mph - N/A Thunderstorm Thunderstorm
3:19 PM 80.6 °F 48.2 °F 32% 30.25 in 10.0 mi NNW 12.7 mph - N/A Thunderstorm Partly Cloudy
3:53 PM 81.0 °F 46.9 °F 30% 29.98 in 10.0 mi North 8.1 mph - N/A Thunderstorm Mostly Cloudy
4:06 PM 80.6 °F 46.4 °F 30% 30.24 in 10.0 mi NW 9.2 mph - N/A   Mostly Cloudy
4:40 PM 82.4 °F 46.4 °F 28% 30.23 in 10.0 mi NW 8.1 mph - N/A Thunderstorm Partly Cloudy
4:53 PM 82.9 °F 45.0 °F 26% 29.96 in 10.0 mi Variable 4.6 mph - N/A Thunderstorm Partly Cloudy
5:06 PM 84.2 °F 46.4 °F 27% 30.22 in 10.0 mi Calm Calm - N/A   Partly Cloudy
5:53 PM 77.0 °F 46.9 °F 34% 29.98 in 10.0 mi SE 16.1 mph 25.3 mph N/A   Mostly Cloudy
6:27 PM 73.4 °F 48.2 °F 41% 30.22 in 10.0 mi SE 17.3 mph 23.0 mph N/A Thunderstorm Thunderstorm
6:54 PM 66.2 °F 48.2 °F 52% 30.26 in - SW 16.1 mph - N/A Thunderstorm Thunderstorm
7:03 PM 62.6 °F 57.2 °F 82% 30.27 in 1.5 mi Variable 4.6 mph - N/A Rain , Thunderstorm Heavy Thunderstorms and Rain
7:07 PM 62.6 °F 57.2 °F 82% 30.28 in 3.0 mi NNW 8.1 mph - N/A Rain , Thunderstorm Light Thunderstorms and Rain
7:48 PM 66.2 °F 55.4 °F 68% 30.26 in 10.0 mi ENE 9.2 mph 20.7 mph N/A Rain Light Rain
7:53 PM 66.0 °F 57.0 °F 73% 30.05 in 10.0 mi NE 4.6 mph - N/A   Overcast
8:53 PM 66.0 °F 55.9 °F 70% 30.04 in 10.0 mi West 5.8 mph - 0.01 in   Overcast
9:53 PM 62.1 °F 55.9 °F 80% 30.08 in 10.0 mi WSW 12.7 mph - 0.00 in Rain Light Rain
10:53 PM 62.1 °F 55.9 °F 80% 30.10 in 10.0 mi WSW 4.6 mph - 0.00 in   Overcast
11:53 PM 60.1 °F 55.9 °F 86% 30.11 in 10.0 mi ESE 8.1 mph - 0.01 in Rain Light Rain